StationID,Date,MaxTemp,MinTemp,Precipitation,Snowfall,SnowDepth
"CA001104477","1960-01-01",37.04,23.00,0.00,0.00,
"CA001104477","1960-01-02",,26.96,0.00,0.00,
"CA001104477","1960-01-03",,17.96,0.00,0.00,
"CA001104477","1960-01-04",,30.02,23.00,0.00,
"CA001104477","1960-01-05",41.00,33.08,117.00,0.00,
"CA001104477","1960-01-06",42.08,33.08,127.00,0.00,
"CA001104477","1960-01-07",39.02,33.08,0.00,0.00,
"CA001104477","1960-01-08",39.02,33.08,0.00,0.00,
"CA001104477","1960-01-09",39.02,28.94,13.00,0.00,
"CA001104477","1960-01-10",39.92,32.00,94.00,0.00,
"CA001104477","1960-01-11",39.92,26.06,0.00,0.00,
"CA001104477","1960-01-12",35.06,23.00,18.00,0.00,
"CA001104477","1960-01-13",41.00,32.00,66.00,0.00,
"CA001104477","1960-01-14",39.92,33.08,0.00,0.00,
"CA001104477","1960-01-15",37.94,30.92,150.00,0.00,
"CA001104477","1960-01-16",39.02,33.98,0.00,0.00,
"CA001104477","1960-01-17",41.00,24.98,0.00,0.00,
"CA001104477","1960-01-18",37.04,21.92,0.00,0.00,
"CA001104477","1960-01-19",37.04,21.92,0.00,0.00,
"CA001104477","1960-01-20",39.02,26.06,0.00,0.00,
"CA001104477","1960-01-21",35.96,26.06,0.00,0.00,
"CA001104477","1960-01-22",37.04,28.94,13.00,0.00,
"CA001104477","1960-01-23",39.92,33.98,193.00,0.00,
"CA001104477","1960-01-24",42.98,37.04,48.00,0.00,
"CA001104477","1960-01-25",42.98,39.92,58.00,0.00,
"CA001104477","1960-01-26",44.06,37.04,79.00,0.00,
"CA001104477","1960-01-27",46.94,35.06,8.00,0.00,
"CA001104477","1960-01-28",51.98,35.96,378.00,0.00,
"CA001104477","1960-01-29",53.96,44.06,28.00,0.00,
"CA001104477","1960-01-30",51.98,37.04,0.00,0.00,
"CA001104477","1960-01-31",51.98,37.04,3.00,0.00,
"CA001104477","1960-02-01",51.98,42.98,109.00,0.00,
"CA001104477","1960-02-02",48.02,42.98,30.00,0.00,
"CA001104477","1960-02-03",46.94,39.02,0.00,0.00,
"CA001104477","1960-02-04",46.94,33.08,33.00,0.00,
"CA001104477","1960-02-05",51.08,37.94,3.00,0.00,
"CA001104477","1960-02-06",50.00,39.92,165.00,0.00,
"CA001104477","1960-02-07",51.08,39.02,48.00,0.00,
"CA001104477","1960-02-08",42.98,33.08,28.00,0.00,
"CA001104477","1960-02-09",44.96,39.92,13.00,0.00,
"CA001104477","1960-02-10",46.04,39.02,3.00,0.00,
"CA001104477","1960-02-11",48.92,33.98,180.00,0.00,
"CA001104477","1960-02-12",50.00,39.02,46.00,0.00,
"CA001104477","1960-02-13",46.94,33.98,41.00,0.00,
"CA001104477","1960-02-14",48.02,39.92,114.00,0.00,
"CA001104477","1960-02-15",51.08,39.92,5.00,0.00,
"CA001104477","1960-02-16",46.04,35.96,0.00,0.00,
"CA001104477","1960-02-17",44.06,28.04,0.00,0.00,
"CA001104477","1960-02-18",44.06,28.94,0.00,0.00,
"CA001104477","1960-02-19",42.98,30.02,8.00,0.00,
"CA001104477","1960-02-20",44.96,33.98,8.00,0.00,
"CA001104477","1960-02-21",46.94,30.92,0.00,0.00,
"CA001104477","1960-02-22",46.04,28.94,0.00,0.00,
"CA001104477","1960-02-23",44.06,28.04,0.00,0.00,
"CA001104477","1960-02-24",44.96,30.02,0.00,0.00,
"CA001104477","1960-02-25",42.98,28.04,0.00,0.00,
"CA001104477","1960-02-26",39.02,24.08,0.00,0.00,
"CA001104477","1960-02-27",41.00,24.98,0.00,0.00,
"CA001104477","1960-02-28",39.92,24.08,0.00,0.00,
"CA001104477","1960-02-29",42.08,21.92,0.00,0.00,
"CA001104477","1960-03-01",39.92,28.04,0.00,0.00,
"CA001104477","1960-03-02",37.94,24.08,0.00,0.00,
"CA001104477","1960-03-03",33.98,21.02,114.00,114.00,
"CA001104477","1960-03-04",39.02,24.08,69.00,0.00,
"CA001104477","1960-03-05",41.00,24.98,71.00,0.00,
"CA001104477","1960-03-06",48.02,33.98,36.00,0.00,
"CA001104477","1960-03-07",51.08,35.96,117.00,0.00,
"CA001104477","1960-03-08",44.96,32.00,46.00,0.00,
"CA001104477","1960-03-09",44.96,35.06,15.00,0.00,
"CA001104477","1960-03-10",46.04,33.08,15.00,0.00,
"CA001104477","1960-03-11",44.96,32.00,0.00,0.00,
"CA001104477","1960-03-12",46.04,28.04,0.00,0.00,
"CA001104477","1960-03-13",44.96,28.04,25.00,0.00,
"CA001104477","1960-03-14",44.96,35.06,69.00,0.00,
"CA001104477","1960-03-15",48.02,39.02,3.00,0.00,
"CA001104477","1960-03-16",44.06,37.94,15.00,0.00,
"CA001104477","1960-03-17",48.02,41.00,3.00,0.00,
"CA001104477","1960-03-18",48.92,35.96,0.00,0.00,
"CA001104477","1960-03-19",51.98,30.92,0.00,0.00,
"CA001104477","1960-03-20",59.00,32.00,0.00,0.00,
"CA001104477","1960-03-21",55.04,37.94,0.00,0.00,
"CA001104477","1960-03-22",53.96,37.94,0.00,0.00,
"CA001104477","1960-03-23",53.06,37.94,0.00,0.00,
"CA001104477","1960-03-24",57.92,42.98,0.00,0.00,
"CA001104477","1960-03-25",60.08,39.92,10.00,0.00,
"CA001104477","1960-03-26",51.98,44.96,38.00,0.00,
"CA001104477","1960-03-27",57.02,48.92,25.00,0.00,
"CA001104477","1960-03-28",50.00,42.98,41.00,0.00,
"CA001104477","1960-03-29",53.96,44.96,30.00,0.00,
"CA001104477","1960-03-30",51.98,39.02,10.00,0.00,
"CA001104477","1960-03-31",53.06,39.92,64.00,0.00,
"CA001104477","1960-04-01",53.06,39.02,23.00,0.00,
"CA001104477","1960-04-02",55.04,46.04,0.00,0.00,
"CA001104477","1960-04-03",62.06,48.02,0.00,0.00,
"CA001104477","1960-04-04",60.98,41.00,0.00,0.00,
"CA001104477","1960-04-05",53.96,44.06,0.00,0.00,
"CA001104477","1960-04-06",57.92,35.06,0.00,0.00,
"CA001104477","1960-04-07",64.94,39.92,0.00,0.00,
"CA001104477","1960-04-08",59.00,46.04,8.00,0.00,
"CA001104477","1960-04-09",53.06,37.04,0.00,0.00,
"CA001104477","1960-04-10",55.04,32.00,20.00,0.00,
"CA001104477","1960-04-11",55.04,44.96,0.00,0.00,
"CA001104477","1960-04-12",55.04,41.00,0.00,0.00,
"CA001104477","1960-04-13",50.00,42.08,25.00,0.00,
"CA001104477","1960-04-14",50.00,42.08,18.00,0.00,
"CA001104477","1960-04-15",51.08,37.94,0.00,0.00,
"CA001104477","1960-04-16",51.08,37.94,0.00,0.00,
"CA001104477","1960-04-17",55.04,42.08,0.00,0.00,
"CA001104477","1960-04-18",46.94,39.92,81.00,0.00,
"CA001104477","1960-04-19",51.98,44.06,43.00,0.00,
"CA001104477","1960-04-20",51.98,42.98,0.00,0.00,
"CA001104477","1960-04-21",48.92,33.98,0.00,0.00,
"CA001104477","1960-04-22",53.96,33.98,0.00,0.00,
"CA001104477","1960-04-23",59.00,41.00,25.00,0.00,
"CA001104477","1960-04-24",55.94,41.00,,0.00,
"CA001104477","1960-04-25",57.92,32.00,5.00,0.00,
"CA001104477","1960-04-26",62.96,46.04,0.00,0.00,
"CA001104477","1960-04-27",62.96,46.04,0.00,0.00,
"CA001104477","1960-04-28",62.96,42.08,0.00,0.00,
"CA001104477","1960-04-29",59.00,44.96,0.00,0.00,
"CA001104477","1960-04-30",60.08,39.92,0.00,0.00,
"CA001104477","1960-05-01",60.98,41.00,0.00,0.00,
"CA001104477","1960-05-02",57.92,44.96,13.00,0.00,
"CA001104477","1960-05-03",53.96,46.94,3.00,0.00,
"CA001104477","1960-05-04",55.94,46.94,5.00,0.00,
"CA001104477","1960-05-05",60.98,44.96,89.00,0.00,
"CA001104477","1960-05-06",60.08,51.08,30.00,0.00,
"CA001104477","1960-05-07",57.92,44.96,0.00,0.00,
"CA001104477","1960-05-08",57.02,44.06,0.00,0.00,
"CA001104477","1960-05-09",69.08,48.02,0.00,0.00,
"CA001104477","1960-05-10",60.08,53.06,79.00,0.00,
"CA001104477","1960-05-11",57.02,50.00,97.00,0.00,
"CA001104477","1960-05-12",62.06,51.08,0.00,0.00,
"CA001104477","1960-05-13",60.98,44.96,0.00,0.00,
"CA001104477","1960-05-14",59.00,46.04,0.00,0.00,
"CA001104477","1960-05-15",59.00,37.94,41.00,0.00,
"CA001104477","1960-05-16",55.94,46.94,5.00,0.00,
"CA001104477","1960-05-17",55.04,42.08,3.00,0.00,
"CA001104477","1960-05-18",60.08,35.96,0.00,0.00,
"CA001104477","1960-05-19",51.08,44.06,178.00,0.00,
"CA001104477","1960-05-20",55.94,46.04,23.00,0.00,
"CA001104477","1960-05-21",55.04,42.08,5.00,0.00,
"CA001104477","1960-05-22",57.02,42.98,0.00,0.00,
"CA001104477","1960-05-23",62.06,37.04,0.00,0.00,
"CA001104477","1960-05-24",60.98,39.92,0.00,0.00,
"CA001104477","1960-05-25",62.96,48.92,8.00,0.00,
"CA001104477","1960-05-26",62.06,48.92,23.00,0.00,
"CA001104477","1960-05-27",60.08,46.04,10.00,0.00,
"CA001104477","1960-05-28",62.96,44.96,0.00,0.00,
"CA001104477","1960-05-29",59.00,44.06,25.00,0.00,
"CA001104477","1960-05-30",60.98,51.08,8.00,0.00,
"CA001104477","1960-05-31",62.96,48.92,0.00,0.00,
"CA001104477","1960-06-01",69.08,51.98,0.00,0.00,
"CA001104477","1960-06-02",71.06,51.08,0.00,0.00,
"CA001104477","1960-06-03",64.04,55.04,0.00,0.00,
"CA001104477","1960-06-04",62.96,44.96,0.00,0.00,
"CA001104477","1960-06-05",68.00,53.06,0.00,0.00,
"CA001104477","1960-06-06",62.06,50.00,0.00,0.00,
"CA001104477","1960-06-07",62.06,51.98,0.00,0.00,
"CA001104477","1960-06-08",64.94,42.98,0.00,0.00,
"CA001104477","1960-06-09",69.08,48.02,0.00,0.00,
"CA001104477","1960-06-10",68.00,46.04,0.00,0.00,
"CA001104477","1960-06-11",66.92,53.06,0.00,0.00,
"CA001104477","1960-06-12",73.94,46.04,0.00,0.00,
"CA001104477","1960-06-13",62.96,53.06,0.00,0.00,
"CA001104477","1960-06-14",60.08,46.04,38.00,0.00,
"CA001104477","1960-06-15",59.00,50.00,36.00,0.00,
"CA001104477","1960-06-16",57.02,51.98,0.00,0.00,
"CA001104477","1960-06-17",64.94,51.98,0.00,0.00,
"CA001104477","1960-06-18",64.04,44.96,0.00,0.00,
"CA001104477","1960-06-19",60.98,46.94,25.00,0.00,
"CA001104477","1960-06-20",62.96,44.96,0.00,0.00,
"CA001104477","1960-06-21",62.96,50.00,0.00,0.00,
"CA001104477","1960-06-22",69.08,42.98,0.00,0.00,
"CA001104477","1960-06-23",73.04,46.94,0.00,0.00,
"CA001104477","1960-06-24",68.00,53.96,0.00,0.00,
"CA001104477","1960-06-25",60.98,53.06,8.00,0.00,
"CA001104477","1960-06-26",64.94,53.96,0.00,0.00,
"CA001104477","1960-06-27",69.98,55.04,0.00,0.00,
"CA001104477","1960-06-28",73.04,48.02,0.00,0.00,
"CA001104477","1960-06-29",71.06,51.98,0.00,0.00,
"CA001104477","1960-06-30",62.06,53.06,0.00,0.00,
"CA001104477","1960-07-01",60.08,51.98,5.00,0.00,
"CA001104477","1960-07-02",68.00,48.02,0.00,0.00,
"CA001104477","1960-07-03",71.06,44.96,0.00,0.00,
"CA001104477","1960-07-04",73.04,48.92,0.00,0.00,
"CA001104477","1960-07-05",75.92,60.08,0.00,0.00,
"CA001104477","1960-07-06",80.96,51.08,0.00,0.00,
"CA001104477","1960-07-07",75.02,55.04,0.00,0.00,
"CA001104477","1960-07-08",69.08,55.94,0.00,0.00,
"CA001104477","1960-07-09",69.98,55.04,0.00,0.00,
"CA001104477","1960-07-10",64.94,48.02,0.00,0.00,
"CA001104477","1960-07-11",73.94,50.00,0.00,0.00,
"CA001104477","1960-07-12",78.08,51.08,0.00,0.00,
"CA001104477","1960-07-13",73.94,55.04,0.00,0.00,
"CA001104477","1960-07-14",73.04,53.06,0.00,0.00,
"CA001104477","1960-07-15",78.08,46.94,0.00,0.00,
"CA001104477","1960-07-16",82.04,50.00,0.00,0.00,
"CA001104477","1960-07-17",77.00,55.04,0.00,0.00,
"CA001104477","1960-07-18",78.08,53.06,0.00,0.00,
"CA001104477","1960-07-19",73.04,60.08,0.00,0.00,
"CA001104477","1960-07-20",71.96,59.00,0.00,0.00,
"CA001104477","1960-07-21",73.94,48.02,0.00,0.00,
"CA001104477","1960-07-22",69.08,50.00,0.00,0.00,
"CA001104477","1960-07-23",69.98,48.02,0.00,0.00,
"CA001104477","1960-07-24",71.96,44.96,0.00,0.00,
"CA001104477","1960-07-25",75.92,44.96,0.00,0.00,
"CA001104477","1960-07-26",78.98,51.08,0.00,0.00,
"CA001104477","1960-07-27",78.08,62.96,0.00,0.00,
"CA001104477","1960-07-28",78.08,53.96,0.00,0.00,
"CA001104477","1960-07-29",87.08,53.06,0.00,0.00,
"CA001104477","1960-07-30",75.02,57.92,0.00,0.00,
"CA001104477","1960-07-31",69.98,59.00,0.00,0.00,
"CA001104477","1960-08-01",66.92,55.04,0.00,0.00,
"CA001104477","1960-08-02",69.08,59.00,0.00,0.00,
"CA001104477","1960-08-03",69.08,57.02,0.00,0.00,
"CA001104477","1960-08-04",62.96,55.04,0.00,0.00,
"CA001104477","1960-08-05",73.04,48.92,0.00,0.00,
"CA001104477","1960-08-06",75.02,55.04,0.00,0.00,
"CA001104477","1960-08-07",82.94,55.94,0.00,0.00,
"CA001104477","1960-08-08",87.98,53.96,0.00,0.00,
"CA001104477","1960-08-09",91.94,55.04,0.00,0.00,
"CA001104477","1960-08-10",71.06,57.02,0.00,0.00,
"CA001104477","1960-08-11",69.98,55.94,0.00,0.00,
"CA001104477","1960-08-12",71.06,53.96,0.00,0.00,
"CA001104477","1960-08-13",69.98,53.06,160.00,0.00,
"CA001104477","1960-08-14",62.06,50.00,36.00,0.00,
"CA001104477","1960-08-15",66.02,46.04,38.00,0.00,
"CA001104477","1960-08-16",62.96,55.04,3.00,0.00,
"CA001104477","1960-08-17",69.08,59.00,0.00,0.00,
"CA001104477","1960-08-18",75.02,55.04,0.00,0.00,
"CA001104477","1960-08-19",68.00,53.96,0.00,0.00,
"CA001104477","1960-08-20",66.92,46.04,66.00,0.00,
"CA001104477","1960-08-21",62.96,50.00,71.00,0.00,
"CA001104477","1960-08-22",64.04,46.94,0.00,0.00,
"CA001104477","1960-08-23",62.96,50.00,36.00,0.00,
"CA001104477","1960-08-24",64.94,53.96,0.00,0.00,
"CA001104477","1960-08-25",59.00,53.06,8.00,0.00,
"CA001104477","1960-08-26",64.04,53.96,10.00,0.00,
"CA001104477","1960-08-27",66.02,48.92,3.00,0.00,
"CA001104477","1960-08-28",57.92,53.06,71.00,0.00,
"CA001104477","1960-08-29",62.06,53.06,33.00,0.00,
"CA001104477","1960-08-30",57.92,51.98,56.00,0.00,
"CA001104477","1960-08-31",64.04,48.02,0.00,0.00,
"CA001104477","1960-09-01",64.04,39.02,0.00,0.00,
"CA001104477","1960-09-02",62.96,39.02,0.00,0.00,
"CA001104477","1960-09-03",68.00,42.08,38.00,0.00,
"CA001104477","1960-09-04",60.98,53.96,23.00,0.00,
"CA001104477","1960-09-05",64.04,51.98,0.00,0.00,
"CA001104477","1960-09-06",62.96,44.96,0.00,0.00,
"CA001104477","1960-09-07",64.94,37.94,0.00,0.00,
"CA001104477","1960-09-08",68.00,39.92,0.00,0.00,
"CA001104477","1960-09-09",71.96,39.02,0.00,0.00,
"CA001104477","1960-09-10",71.06,44.06,0.00,0.00,
"CA001104477","1960-09-11",73.04,46.04,0.00,0.00,
"CA001104477","1960-09-12",64.04,50.00,0.00,0.00,
"CA001104477","1960-09-13",64.04,46.94,0.00,0.00,
"CA001104477","1960-09-14",60.98,48.02,0.00,0.00,
"CA001104477","1960-09-15",64.04,51.08,0.00,0.00,
"CA001104477","1960-09-16",64.04,48.02,0.00,0.00,
"CA001104477","1960-09-17",60.98,44.96,0.00,0.00,
"CA001104477","1960-09-18",60.98,50.00,51.00,0.00,
"CA001104477","1960-09-19",60.98,53.06,13.00,0.00,
"CA001104477","1960-09-20",59.00,48.92,0.00,0.00,
"CA001104477","1960-09-21",60.98,33.98,5.00,0.00,
"CA001104477","1960-09-22",55.04,41.00,51.00,0.00,
"CA001104477","1960-09-23",59.00,50.00,66.00,0.00,
"CA001104477","1960-09-24",57.92,50.00,0.00,0.00,
"CA001104477","1960-09-25",60.98,53.06,0.00,0.00,
"CA001104477","1960-09-26",60.98,39.02,0.00,0.00,
"CA001104477","1960-09-27",62.96,44.96,0.00,0.00,
"CA001104477","1960-09-28",62.06,51.98,0.00,0.00,
"CA001104477","1960-09-29",64.04,48.02,0.00,0.00,
"CA001104477","1960-09-30",62.96,50.00,0.00,0.00,
"CA001104477","1960-10-01",60.98,44.96,0.00,0.00,
"CA001104477","1960-10-02",64.04,39.92,0.00,0.00,
"CA001104477","1960-10-03",55.94,48.92,0.00,0.00,
"CA001104477","1960-10-04",62.06,44.06,0.00,0.00,
"CA001104477","1960-10-05",62.06,42.98,119.00,0.00,
"CA001104477","1960-10-06",62.96,50.00,94.00,0.00,
"CA001104477","1960-10-07",57.92,46.94,18.00,0.00,
"CA001104477","1960-10-08",53.06,41.00,0.00,0.00,
"CA001104477","1960-10-09",53.96,33.98,0.00,0.00,
"CA001104477","1960-10-10",57.02,35.96,0.00,0.00,
"CA001104477","1960-10-11",51.98,37.94,94.00,0.00,
"CA001104477","1960-10-12",55.04,46.94,0.00,0.00,
"CA001104477","1960-10-13",51.98,42.98,36.00,0.00,
"CA001104477","1960-10-14",55.94,46.04,76.00,0.00,
"CA001104477","1960-10-15",60.08,51.08,5.00,0.00,
"CA001104477","1960-10-16",55.04,48.02,0.00,0.00,
"CA001104477","1960-10-17",57.02,37.94,0.00,0.00,
"CA001104477","1960-10-18",62.96,41.00,0.00,0.00,
"CA001104477","1960-10-19",53.06,42.98,0.00,0.00,
"CA001104477","1960-10-20",57.02,51.08,97.00,0.00,
"CA001104477","1960-10-21",55.04,51.98,269.00,0.00,
"CA001104477","1960-10-22",62.06,51.08,119.00,0.00,
"CA001104477","1960-10-23",59.00,53.96,122.00,0.00,
"CA001104477","1960-10-24",57.92,50.00,8.00,0.00,
"CA001104477","1960-10-25",55.94,48.02,140.00,0.00,
"CA001104477","1960-10-26",53.06,48.02,43.00,0.00,
"CA001104477","1960-10-27",51.98,46.04,56.00,0.00,
"CA001104477","1960-10-28",53.06,46.94,0.00,0.00,
"CA001104477","1960-10-29",51.08,35.06,36.00,0.00,
"CA001104477","1960-10-30",51.08,39.02,15.00,0.00,
"CA001104477","1960-10-31",57.02,46.04,25.00,0.00,
"CA001104477","1960-11-01",53.96,42.98,64.00,0.00,
"CA001104477","1960-11-02",51.08,44.06,0.00,0.00,
"CA001104477","1960-11-03",48.92,32.00,0.00,0.00,
"CA001104477","1960-11-04",50.00,28.94,0.00,0.00,
"CA001104477","1960-11-05",51.08,28.94,5.00,0.00,
"CA001104477","1960-11-06",46.04,33.98,3.00,0.00,
"CA001104477","1960-11-07",48.02,37.04,0.00,0.00,
"CA001104477","1960-11-08",51.08,32.00,0.00,0.00,
"CA001104477","1960-11-09",51.98,35.96,130.00,0.00,
"CA001104477","1960-11-10",48.92,42.08,198.00,0.00,
"CA001104477","1960-11-11",53.06,39.02,0.00,0.00,
"CA001104477","1960-11-12",51.98,33.08,13.00,0.00,
"CA001104477","1960-11-13",48.02,33.08,36.00,0.00,
"CA001104477","1960-11-14",46.94,37.04,15.00,0.00,
"CA001104477","1960-11-15",44.96,35.06,135.00,0.00,
"CA001104477","1960-11-16",51.98,37.94,58.00,0.00,
"CA001104477","1960-11-17",53.06,42.08,97.00,0.00,
"CA001104477","1960-11-18",51.98,44.06,8.00,0.00,
"CA001104477","1960-11-19",48.92,46.04,20.00,0.00,
"CA001104477","1960-11-20",42.98,39.92,3.00,0.00,
"CA001104477","1960-11-21",46.04,30.92,0.00,0.00,
"CA001104477","1960-11-22",46.04,35.06,36.00,0.00,
"CA001104477","1960-11-23",44.96,41.00,178.00,0.00,
"CA001104477","1960-11-24",44.96,39.02,104.00,0.00,
"CA001104477","1960-11-25",44.96,35.96,114.00,0.00,
"CA001104477","1960-11-26",46.04,37.94,0.00,0.00,
"CA001104477","1960-11-27",44.06,30.92,0.00,0.00,
"CA001104477","1960-11-28",44.06,32.00,0.00,0.00,
"CA001104477","1960-11-29",46.04,39.02,0.00,0.00,
"CA001104477","1960-11-30",46.94,37.94,0.00,0.00,
"CA001104477","1960-12-01",53.06,39.02,0.00,0.00,
"CA001104477","1960-12-02",48.02,35.06,8.00,0.00,
"CA001104477","1960-12-03",48.92,37.04,0.00,0.00,
"CA001104477","1960-12-04",44.06,28.04,0.00,0.00,
"CA001104477","1960-12-05",42.08,30.02,0.00,0.00,
"CA001104477","1960-12-06",41.00,26.06,0.00,0.00,
"CA001104477","1960-12-07",39.92,24.08,0.00,0.00,
"CA001104477","1960-12-08",37.04,28.04,0.00,0.00,
"CA001104477","1960-12-09",44.06,24.98,0.00,0.00,
"CA001104477","1960-12-10",46.04,28.04,69.00,0.00,
"CA001104477","1960-12-11",51.08,41.00,399.00,0.00,
"CA001104477","1960-12-12",55.94,42.08,124.00,0.00,
"CA001104477","1960-12-13",48.92,42.08,69.00,0.00,
"CA001104477","1960-12-14",44.06,30.02,0.00,0.00,
"CA001104477","1960-12-15",42.98,26.06,0.00,0.00,
"CA001104477","1960-12-16",39.92,24.08,10.00,0.00,
"CA001104477","1960-12-17",42.08,35.06,114.00,0.00,
"CA001104477","1960-12-18",46.04,37.94,157.00,0.00,
"CA001104477","1960-12-19",48.92,37.94,0.00,0.00,
"CA001104477","1960-12-20",44.06,35.06,0.00,0.00,
"CA001104477","1960-12-21",44.96,32.00,0.00,0.00,
"CA001104477","1960-12-22",41.00,32.00,0.00,0.00,
"CA001104477","1960-12-23",42.08,35.06,76.00,0.00,
"CA001104477","1960-12-24",42.98,37.04,38.00,0.00,
"CA001104477","1960-12-25",46.04,37.94,0.00,0.00,
"CA001104477","1960-12-26",46.04,35.96,0.00,0.00,
"CA001104477","1960-12-27",41.00,28.04,0.00,0.00,
"CA001104477","1960-12-28",41.00,28.04,0.00,0.00,
"CA001104477","1960-12-29",39.92,26.96,0.00,0.00,
"CA001104477","1960-12-30",41.00,35.06,89.00,0.00,
"CA001104477","1960-12-31",42.08,35.06,5.00,0.00,
"CA001104477","1961-01-01",44.06,30.92,0.00,0.00,
"CA001104477","1961-01-02",42.08,28.04,0.00,0.00,
"CA001104477","1961-01-03",42.98,26.06,41.00,0.00,
"CA001104477","1961-01-04",46.94,37.94,196.00,0.00,
"CA001104477","1961-01-05",44.96,39.92,124.00,0.00,
"CA001104477","1961-01-06",42.08,33.98,13.00,0.00,
"CA001104477","1961-01-07",51.98,35.06,13.00,0.00,
"CA001104477","1961-01-08",48.02,42.98,86.00,0.00,
"CA001104477","1961-01-09",51.08,44.96,109.00,0.00,
"CA001104477","1961-01-10",51.08,46.94,249.00,0.00,
"CA001104477","1961-01-11",53.96,46.04,41.00,0.00,
"CA001104477","1961-01-12",48.02,35.96,15.00,0.00,
"CA001104477","1961-01-13",50.00,42.08,66.00,0.00,
"CA001104477","1961-01-14",53.96,46.04,221.00,0.00,
"CA001104477","1961-01-15",53.06,48.02,91.00,0.00,
"CA001104477","1961-01-16",46.94,35.96,10.00,0.00,
"CA001104477","1961-01-17",46.94,37.04,0.00,0.00,
"CA001104477","1961-01-18",48.92,35.06,0.00,0.00,
"CA001104477","1961-01-19",41.00,32.00,0.00,0.00,
"CA001104477","1961-01-20",39.92,35.06,0.00,0.00,
"CA001104477","1961-01-21",39.02,33.98,0.00,0.00,
"CA001104477","1961-01-22",37.04,26.96,0.00,0.00,
"CA001104477","1961-01-23",39.92,30.92,8.00,0.00,
"CA001104477","1961-01-24",39.92,28.94,3.00,0.00,
"CA001104477","1961-01-25",39.02,33.08,0.00,0.00,
"CA001104477","1961-01-26",41.00,32.00,0.00,0.00,
"CA001104477","1961-01-27",37.94,26.96,0.00,0.00,
"CA001104477","1961-01-28",35.96,24.98,10.00,0.00,
"CA001104477","1961-01-29",48.92,32.00,196.00,0.00,
"CA001104477","1961-01-30",50.00,33.08,51.00,0.00,
"CA001104477","1961-01-31",53.06,42.98,51.00,0.00,
"CA001104477","1961-02-01",50.00,41.00,246.00,0.00,
"CA001104477","1961-02-02",51.08,39.02,48.00,0.00,
"CA001104477","1961-02-03",48.02,39.92,38.00,0.00,
"CA001104477","1961-02-04",48.92,42.08,145.00,0.00,
"CA001104477","1961-02-05",53.06,46.94,150.00,0.00,
"CA001104477","1961-02-06",53.96,46.04,0.00,0.00,
"CA001104477","1961-02-07",48.02,39.92,56.00,0.00,
"CA001104477","1961-02-08",51.08,41.00,43.00,0.00,
"CA001104477","1961-02-09",51.08,42.98,76.00,0.00,
"CA001104477","1961-02-10",48.92,33.08,53.00,0.00,
"CA001104477","1961-02-11",48.02,39.92,36.00,0.00,
"CA001104477","1961-02-12",44.06,37.04,58.00,0.00,
"CA001104477","1961-02-13",48.02,37.94,8.00,0.00,
"CA001104477","1961-02-14",46.04,39.92,127.00,0.00,
"CA001104477","1961-02-15",48.02,39.92,0.00,0.00,
"CA001104477","1961-02-16",42.98,37.04,312.00,0.00,
"CA001104477","1961-02-17",41.00,33.08,13.00,0.00,
"CA001104477","1961-02-18",42.98,30.92,183.00,0.00,
"CA001104477","1961-02-19",50.00,37.94,145.00,0.00,
"CA001104477","1961-02-20",51.98,44.96,112.00,0.00,
"CA001104477","1961-02-21",51.08,37.94,64.00,0.00,
"CA001104477","1961-02-22",50.00,33.98,15.00,0.00,
"CA001104477","1961-02-23",46.94,39.92,76.00,0.00,
"CA001104477","1961-02-24",44.96,39.92,0.00,0.00,
"CA001104477","1961-02-25",42.08,37.04,0.00,0.00,
"CA001104477","1961-02-26",42.08,30.02,104.00,0.00,
"CA001104477","1961-02-27",46.04,35.06,61.00,0.00,
"CA001104477","1961-02-28",51.08,39.92,165.00,0.00,
"CA001104477","1961-03-01",48.92,39.02,0.00,0.00,
"CA001104477","1961-03-02",44.06,28.94,0.00,0.00,
"CA001104477","1961-03-03",41.00,28.94,0.00,0.00,
"CA001104477","1961-03-04",42.08,28.04,0.00,0.00,
"CA001104477","1961-03-05",42.08,30.92,185.00,76.00,
"CA001104477","1961-03-06",42.08,32.00,43.00,0.00,
"CA001104477","1961-03-07",51.08,30.92,33.00,0.00,
"CA001104477","1961-03-08",51.98,42.08,18.00,0.00,
"CA001104477","1961-03-09",48.92,39.92,13.00,0.00,
"CA001104477","1961-03-10",48.02,39.92,91.00,0.00,
"CA001104477","1961-03-11",50.00,37.94,48.00,0.00,
"CA001104477","1961-03-12",50.00,35.96,119.00,0.00,
"CA001104477","1961-03-13",51.08,39.92,36.00,0.00,
"CA001104477","1961-03-14",53.96,42.98,170.00,0.00,
"CA001104477","1961-03-15",55.94,46.04,0.00,0.00,
"CA001104477","1961-03-16",51.08,42.08,0.00,0.00,
"CA001104477","1961-03-17",53.06,37.94,0.00,0.00,
"CA001104477","1961-03-18",59.00,42.08,0.00,0.00,
"CA001104477","1961-03-19",55.04,46.04,79.00,0.00,
"CA001104477","1961-03-20",53.96,42.08,0.00,0.00,
"CA001104477","1961-03-21",51.08,33.08,15.00,0.00,
"CA001104477","1961-03-22",53.96,39.92,20.00,0.00,
"CA001104477","1961-03-23",55.04,46.04,3.00,0.00,
"CA001104477","1961-03-24",57.02,42.98,0.00,0.00,
"CA001104477","1961-03-25",55.04,44.06,25.00,0.00,
"CA001104477","1961-03-26",51.98,44.06,0.00,0.00,
"CA001104477","1961-03-27",53.06,37.04,0.00,0.00,
"CA001104477","1961-03-28",53.96,35.06,0.00,0.00,
"CA001104477","1961-03-29",53.96,42.98,0.00,0.00,
"CA001104477","1961-03-30",53.06,37.04,53.00,0.00,
"CA001104477","1961-03-31",55.94,44.96,53.00,0.00,
"CA001104477","1961-04-01",51.08,48.92,43.00,0.00,
"CA001104477","1961-04-02",53.06,44.96,0.00,0.00,
"CA001104477","1961-04-03",51.08,44.06,0.00,0.00,
"CA001104477","1961-04-04",50.00,35.06,0.00,0.00,
"CA001104477","1961-04-05",53.06,35.06,0.00,0.00,
"CA001104477","1961-04-06",55.04,44.06,0.00,0.00,
"CA001104477","1961-04-07",53.96,37.04,20.00,0.00,
"CA001104477","1961-04-08",55.04,44.96,10.00,0.00,
"CA001104477","1961-04-09",53.96,44.96,0.00,0.00,